Location: *
(57.8420°S, 159.8600°W)
Time: 05:12:38
(UTC+00:00)

Cosmos 1953 Rocket - Pass Details

Date: 18 May 2021
Orbit: 605 x 634 km, 82.5° (Epoch: 20 June)

Event Time Altitude Azimuth Distance (km) Brightness Sun altitude
Rises 03:46:01 0° 352° (N) 2,930 7.4 -10.1°
Reaches altitude 10° 03:48:14 10° 353° (N) 2,033 6.6 -10.4°
Maximum altitude 03:52:45 82° 79° (ENE) 661 3.6 -11.0°
Drops below altitude 10° 03:57:22 10° 166° (SSE) 2,067 5.9 -11.5°
Sets 03:59:38 0° 166° (SSE) 2,984 6.7 -11.8°
